Radiation Dose at Monitoring Post of Fukushima Daini Nuclear Power Station
Date,Time,MP-1(microSv/h),MP-2(microSv/h),MP-3(microSv/h),MP-4(microSv/h),MP-5(microSv/h),MP-6(microSv/h),MP-7(microSv/h),Wind Direction,Wind Velocity(m/s),Rain
2020/01/07,00:00,0.184,0.164,0.281,0.261,0.254,0.143,0.087,northwest,5.0,No
2020/01/07,00:10,0.184,0.165,0.280,0.260,0.255,0.141,0.087,northwest,4.6,No
2020/01/07,00:20,0.184,0.165,0.281,0.261,0.254,0.142,0.087,north-northwest,3.6,No
2020/01/07,00:30,0.184,0.165,0.281,0.260,0.255,0.142,0.086,north-northwest,3.9,No
2020/01/07,00:40,0.183,0.165,0.281,0.260,0.255,0.142,0.087,northwest,4.9,No
2020/01/07,00:50,0.183,0.165,0.281,0.261,0.256,0.142,0.087,northwest,4.9,No
2020/01/07,01:00,0.184,0.165,0.280,0.260,0.256,0.142,0.087,north-northwest,4.6,No
2020/01/07,01:10,0.184,0.164,0.281,0.261,0.254,0.141,0.086,north-northwest,5.0,No
2020/01/07,01:20,0.184,0.164,0.282,0.261,0.254,0.141,0.087,northwest,5.2,No
2020/01/07,01:30,0.185,0.165,0.279,0.260,0.255,0.141,0.088,northwest,4.4,No
2020/01/07,01:40,0.184,0.165,0.280,0.262,0.255,0.142,0.087,north-northwest,5.2,No
2020/01/07,01:50,0.185,0.165,0.280,0.261,0.256,0.141,0.087,north-northwest,4.7,No
2020/01/07,02:00,0.184,0.164,0.281,0.260,0.256,0.142,0.087,northwest,6.6,No
2020/01/07,02:10,0.185,0.166,0.280,0.260,0.255,0.141,0.087,north-northwest,6.5,No
2020/01/07,02:20,0.184,0.165,0.280,0.261,0.255,0.142,0.087,north-northwest,5.8,No
2020/01/07,02:30,0.184,0.164,0.280,0.261,0.254,0.143,0.087,north-northwest,6.4,No
2020/01/07,02:40,0.185,0.165,0.281,0.261,0.255,0.142,0.087,north-northwest,7.0,No
2020/01/07,02:50,0.184,0.166,0.280,0.260,0.256,0.141,0.087,north-northwest,6.6,No
2020/01/07,03:00,0.185,0.164,0.280,0.261,0.255,0.141,0.087,north-northwest,7.3,No
2020/01/07,03:10,0.184,0.165,0.281,0.260,0.255,0.141,0.087,north-northwest,6.6,No
2020/01/07,03:20,0.184,0.164,0.281,0.260,0.255,0.142,0.087,northwest,7.3,No
2020/01/07,03:30,0.184,0.166,0.281,0.261,0.256,0.142,0.087,north-northwest,5.9,No
2020/01/07,03:40,0.184,0.165,0.281,0.262,0.255,0.142,0.087,north-northwest,7.0,No
2020/01/07,03:50,0.184,0.166,0.281,0.260,0.257,0.141,0.087,north-northwest,7.0,No
2020/01/07,04:00,0.184,0.165,0.281,0.261,0.255,0.141,0.087,north-northwest,6.5,No
2020/01/07,04:10,0.185,0.166,0.281,0.260,0.255,0.142,0.087,north-northwest,5.9,No
2020/01/07,04:20,0.183,0.165,0.281,0.261,0.255,0.142,0.087,north-northwest,5.3,No
2020/01/07,04:30,0.184,0.165,0.281,0.260,0.255,0.142,0.088,north-northwest,4.6,No
2020/01/07,04:40,0.184,0.165,0.281,0.261,0.255,0.142,0.088,north-northwest,4.9,No
2020/01/07,04:50,0.184,0.165,0.281,0.261,0.255,0.142,0.088,north,5.2,No
2020/01/07,05:00,0.184,0.165,0.280,0.261,0.256,0.142,0.088,north,5.2,No
2020/01/07,05:10,0.184,0.166,0.281,0.260,0.257,0.143,0.088,north-northwest,5.4,No
2020/01/07,05:20,0.185,0.165,0.280,0.261,0.255,0.142,0.087,north,5.3,No
2020/01/07,05:30,0.184,0.164,0.281,0.261,0.255,0.142,0.087,north-northwest,5.1,No
2020/01/07,05:40,0.185,0.164,0.282,0.261,0.254,0.143,0.087,north-northwest,5.1,No
2020/01/07,05:50,0.185,0.165,0.281,0.261,0.255,0.142,0.088,north-northwest,5.8,No
2020/01/07,06:00,0.185,0.166,0.282,0.261,0.256,0.142,0.087,north-northwest,5.7,No
2020/01/07,06:10,0.185,0.164,0.281,0.261,0.255,0.142,0.088,north-northwest,5.3,No
2020/01/07,06:20,0.184,0.165,0.281,0.261,0.255,0.142,0.087,north-northwest,5.0,No
2020/01/07,06:30,0.184,0.164,0.282,0.261,0.254,0.142,0.087,north-northwest,5.0,No
2020/01/07,06:40,0.185,0.164,0.282,0.260,0.255,0.142,0.087,north-northwest,5.2,No
2020/01/07,06:50,0.184,0.165,0.281,0.260,0.255,0.142,0.088,north-northwest,5.5,No
2020/01/07,07:00,0.185,0.165,0.280,0.262,0.256,0.141,0.088,north-northwest,5.4,No
2020/01/07,07:10,0.184,0.164,0.280,0.261,0.255,0.142,0.088,north-northwest,5.6,No
2020/01/07,07:20,0.184,0.165,0.282,0.261,0.254,0.142,0.088,north-northwest,5.6,No
2020/01/07,07:30,0.184,0.165,0.282,0.261,0.255,0.143,0.087,north-northwest,5.6,No
2020/01/07,07:40,0.184,0.165,0.281,0.259,0.256,0.142,0.088,north-northwest,5.9,No
2020/01/07,07:50,0.185,0.164,0.281,0.261,0.254,0.142,0.088,north-northwest,6.0,No
2020/01/07,08:00,0.184,0.166,0.280,0.261,0.255,0.142,0.087,north-northwest,6.3,No
2020/01/07,08:10,0.184,0.166,0.281,0.260,0.254,0.142,0.087,north-northwest,6.5,No
2020/01/07,08:20,0.184,0.165,0.281,0.259,0.255,0.141,0.087,north-northwest,6.3,No
2020/01/07,08:30,0.185,0.165,0.280,0.260,0.254,0.142,0.087,north-northwest,5.9,No
2020/01/07,08:40,0.185,0.165,0.281,0.261,0.255,0.142,0.087,north-northwest,5.9,No
2020/01/07,08:50,0.185,0.166,0.281,0.260,0.255,0.142,0.088,north-northwest,4.8,No
2020/01/07,09:00,0.184,0.166,0.281,0.259,0.256,0.141,0.088,north-northwest,4.4,No
2020/01/07,09:10,0.185,0.164,0.281,0.260,0.255,0.142,0.087,north-northwest,5.1,No
2020/01/07,09:20,0.186,0.165,0.281,0.259,0.254,0.141,0.087,north,5.1,No
2020/01/07,09:30,0.184,0.165,0.280,0.259,0.255,0.141,0.088,north-northwest,4.7,No
2020/01/07,09:40,0.184,0.164,0.281,0.258,0.256,0.142,0.088,north-northwest,3.8,No
2020/01/07,09:50,0.185,0.164,0.281,0.259,0.255,0.142,0.087,north-northwest,3.5,No
2020/01/07,10:00,0.185,0.166,0.281,0.260,0.255,0.142,0.088,north-northwest,3.9,No
2020/01/07,10:10,0.184,0.165,0.281,0.260,0.255,0.142,0.088,north-northwest,2.7,No
2020/01/07,10:20,0.184,0.164,0.281,0.260,0.255,0.142,0.088,north-northwest,4.4,No
2020/01/07,10:30,0.185,0.166,0.281,0.260,0.254,0.141,0.087,north,2.6,No
2020/01/07,10:40,0.184,0.165,0.281,0.260,0.256,0.142,0.087,north-northeast,3.8,No
2020/01/07,10:50,0.185,0.165,0.280,0.261,0.255,0.142,0.087,north,3.8,No
2020/01/07,11:00,0.184,0.164,0.279,0.261,0.256,0.142,0.088,north-northeast,3.4,No
2020/01/07,11:10,0.184,0.165,0.280,0.261,0.256,0.142,0.087,north,3.5,No
2020/01/07,11:20,0.184,0.166,0.280,0.261,0.254,0.142,0.088,north-northeast,3.7,No
2020/01/07,11:30,0.184,0.166,0.281,0.261,0.255,0.142,0.087,north,3.1,No
2020/01/07,11:40,0.185,0.165,0.281,0.260,0.255,0.142,0.087,north,3.6,No
2020/01/07,11:50,0.184,0.165,0.280,0.261,0.254,0.142,0.087,north,3.7,No
2020/01/07,12:00,0.184,0.165,0.279,0.261,0.257,0.142,0.088,north-northeast,2.8,No
2020/01/07,12:10,0.184,0.165,0.281,0.259,0.254,0.142,0.088,north-northeast,2.3,No
2020/01/07,12:20,0.184,0.165,0.279,0.260,0.255,0.143,0.087,north-northeast,2.9,No
2020/01/07,12:30,0.184,0.165,0.279,0.260,0.256,0.142,0.086,north-northeast,1.9,No
2020/01/07,12:40,0.185,0.165,0.281,0.260,0.255,0.143,0.087,north-northeast,2.0,No
2020/01/07,12:50,0.184,0.165,0.279,0.259,0.255,0.142,0.087,northeast,2.1,No
2020/01/07,13:00,0.184,0.165,0.280,0.261,0.256,0.142,0.087,north-northeast,1.8,No
2020/01/07,13:10,0.184,0.165,0.280,0.262,0.255,0.142,0.087,north-northeast,2.1,No
2020/01/07,13:20,0.184,0.165,0.280,0.260,0.256,0.141,0.087,east-northeast,2.1,No
2020/01/07,13:30,0.185,0.165,0.280,0.261,0.256,0.142,0.087,northeast,2.1,No
2020/01/07,13:40,0.184,0.165,0.282,0.261,0.254,0.142,0.087,northeast,1.8,No
2020/01/07,13:50,0.184,0.164,0.280,0.261,0.256,0.141,0.087,northeast,1.9,No
2020/01/07,14:00,0.185,0.164,0.280,0.260,0.254,0.142,0.088,northeast,1.9,No
2020/01/07,14:10,0.184,0.165,0.279,0.261,0.255,0.143,0.088,northeast,1.2,No
2020/01/07,14:20,0.185,0.166,0.280,0.261,0.256,0.142,0.088,east-northeast,2.0,No
2020/01/07,14:30,0.183,0.165,0.279,0.261,0.255,0.141,0.088,east-northeast,1.1,No
2020/01/07,14:40,0.184,0.166,0.281,0.260,0.255,0.142,0.087,northeast,1.0,No
2020/01/07,14:50,0.183,0.164,0.279,0.261,0.256,0.142,0.087,-,CALM,No
2020/01/07,15:00,0.184,0.165,0.280,0.260,0.253,0.142,0.087,south-southwest,0.8,No
2020/01/07,15:10,0.184,0.165,0.279,0.261,0.255,0.141,0.086,-,CALM,No
2020/01/07,15:20,0.184,0.166,0.280,0.261,0.255,0.142,0.086,-,CALM,No
2020/01/07,15:30,0.184,0.165,0.281,0.260,0.255,0.142,0.088,south-southwest,1.0,No
2020/01/07,15:40,0.185,0.165,0.279,0.260,0.255,0.142,0.087,south-southwest,1.0,No
2020/01/07,15:50,0.185,0.165,0.281,0.262,0.255,0.142,0.086,southwest,0.9,No
2020/01/07,16:00,0.184,0.165,0.280,0.260,0.255,0.142,0.087,south-southwest,0.9,No
2020/01/07,16:10,0.184,0.165,0.279,0.261,0.255,0.142,0.087,south-southwest,1.3,No
2020/01/07,16:20,0.183,0.165,0.280,0.262,0.256,0.141,0.088,southwest,1.3,No
2020/01/07,16:30,0.184,0.165,0.280,0.261,0.255,0.142,0.087,southwest,1.7,No
2020/01/07,16:40,0.185,0.164,0.280,0.260,0.256,0.141,0.088,southwest,1.0,No
2020/01/07,16:50,0.183,0.166,0.280,0.260,0.256,0.141,0.087,south-southwest,1.3,No
2020/01/07,17:00,0.184,0.164,0.280,0.260,0.254,0.141,0.087,south-southwest,1.2,No
2020/01/07,17:10,0.184,0.163,0.280,0.260,0.255,0.143,0.088,south-southwest,1.5,Yes
2020/01/07,17:20,0.184,0.165,0.280,0.260,0.257,0.143,0.088,south-southwest,1.9,Yes
2020/01/07,17:30,0.184,0.165,0.281,0.263,0.258,0.143,0.089,south-southwest,2.5,Yes
2020/01/07,17:40,0.185,0.167,0.283,0.264,0.257,0.145,0.090,south-southwest,3.6,Yes
2020/01/07,17:50,0.187,0.168,0.283,0.264,0.259,0.146,0.091,south-southwest,3.4,Yes
2020/01/07,18:00,0.188,0.169,0.284,0.265,0.258,0.147,0.091,south-southwest,2.3,Yes
2020/01/07,18:10,0.187,0.169,0.285,0.265,0.259,0.146,0.092,southwest,3.4,Yes
2020/01/07,18:20,0.188,0.169,0.285,0.265,0.258,0.147,0.091,southwest,4.5,Yes
2020/01/07,18:30,0.189,0.170,0.285,0.265,0.258,0.147,0.093,southwest,4.4,Yes
2020/01/07,18:40,0.189,0.170,0.285,0.265,0.260,0.148,0.093,southwest,3.8,Yes
2020/01/07,18:50,0.188,0.169,0.284,0.264,0.259,0.148,0.093,southwest,4.4,Yes
2020/01/07,19:00,0.188,0.170,0.285,0.265,0.259,0.148,0.094,south-southwest,3.4,Yes
2020/01/07,19:10,0.189,0.169,0.284,0.266,0.258,0.149,0.094,southwest,3.7,Yes
2020/01/07,19:20,0.189,0.170,0.284,0.264,0.257,0.149,0.094,southwest,3.3,Yes
2020/01/07,19:30,0.188,0.170,0.284,0.264,0.258,0.148,0.093,southwest,3.4,Yes
2020/01/07,19:40,0.189,0.170,0.284,0.265,0.258,0.149,0.094,south-southwest,4.0,Yes
2020/01/07,19:50,0.189,0.170,0.284,0.263,0.259,0.147,0.094,southwest,3.6,Yes
2020/01/07,20:00,0.188,0.170,0.283,0.263,0.258,0.148,0.093,southwest,3.9,Yes
2020/01/07,20:10,0.189,0.171,0.284,0.264,0.259,0.150,0.095,south-southwest,3.8,Yes
2020/01/07,20:20,0.191,0.173,0.285,0.267,0.261,0.151,0.096,south-southwest,3.7,Yes
2020/01/07,20:30,0.191,0.172,0.285,0.266,0.261,0.152,0.096,south-southwest,3.6,Yes
2020/01/07,20:40,0.191,0.173,0.285,0.265,0.260,0.151,0.096,south-southwest,3.8,Yes
2020/01/07,20:50,0.191,0.173,0.284,0.265,0.260,0.151,0.096,south-southwest,3.5,Yes
2020/01/07,21:00,0.192,0.171,0.284,0.265,0.261,0.150,0.096,south-southwest,3.8,Yes
2020/01/07,21:10,0.189,0.172,0.282,0.264,0.260,0.149,0.095,southwest,4.1,Yes
2020/01/07,21:20,0.189,0.171,0.281,0.264,0.258,0.148,0.094,southwest,3.7,Yes
2020/01/07,21:30,0.188,0.169,0.281,0.263,0.258,0.147,0.094,southwest,3.8,Yes
2020/01/07,21:40,0.188,0.169,0.280,0.262,0.257,0.147,0.093,southwest,4.1,Yes
2020/01/07,21:50,0.189,0.169,0.281,0.263,0.256,0.147,0.094,southwest,3.3,Yes
2020/01/07,22:00,0.188,0.171,0.281,0.262,0.258,0.148,0.094,southwest,3.2,Yes
2020/01/07,22:10,0.190,0.171,0.281,0.263,0.258,0.149,0.096,southwest,3.4,Yes
2020/01/07,22:20,0.190,0.174,0.281,0.264,0.260,0.151,0.097,south-southwest,2.6,Yes
2020/01/07,22:30,0.191,0.174,0.283,0.264,0.261,0.152,0.098,southwest,2.7,Yes
2020/01/07,22:40,0.192,0.174,0.282,0.265,0.260,0.152,0.099,southwest,2.5,Yes
2020/01/07,22:50,0.191,0.173,0.282,0.265,0.260,0.152,0.099,southwest,2.1,Yes
2020/01/07,23:00,0.191,0.173,0.282,0.265,0.261,0.152,0.099,southwest,2.3,Yes
2020/01/07,23:10,0.191,0.172,0.281,0.264,0.260,0.151,0.098,southwest,2.0,Yes
2020/01/07,23:20,0.190,0.171,0.281,0.263,0.260,0.151,0.098,south-southwest,1.8,Yes
2020/01/07,23:30,0.189,0.172,0.280,0.262,0.259,0.151,0.097,southwest,1.7,Yes
2020/01/07,23:40,0.189,0.170,0.279,0.261,0.259,0.150,0.097,southwest,1.4,Yes
2020/01/07,23:50,0.189,0.170,0.279,0.261,0.258,0.150,0.096,west-southwest,1.6,Yes
